1494284401.03,5452,14.44,72804.0,-5.95,-6.63,-6.73,0,*6E
1494284402.25,5453,14.44,72804.5,-5.95,-6.59,-6.63,0,*67
1494284403.49,5454,14.44,72802.5,-5.95,-6.63,-6.63,0,*69
1494284404.74,5455,14.44,72808.8,-5.95,-6.63,-6.63,0,*68
1494284405.94,5456,14.44,72814.8,-5.95,-6.59,-6.59,0,*6B
1494284407.13,5457,14.44,72812.8,-5.95,-6.73,-6.59,0,*62
1494284408.36,5458,14.44,72808.0,-5.95,-6.59,-6.63,0,*6C
1494284409.57,5459,14.44,72812.0,-5.97,-6.63,-6.59,0,*6F
1494284410.8,5460,14.44,72814.0,-5.97,-6.63,-6.63,0,*6C
1494284412.04,5461,14.44,72814.0,-5.95,-6.63,-6.63,0,*6F
1494284413.26,5462,14.44,72818.8,-5.95,-6.59,-6.63,0,*65
1494284414.5,5463,14.44,72818.5,-5.95,-6.63,-6.63,0,*6D
1494284415.74,5464,14.44,72816.8,-5.95,-6.63,-6.63,0,*6A
1494284416.94,5465,14.44,72818.8,-5.95,-6.73,-6.73,0,*6B
1494284418.14,5466,14.44,72814.3,-5.95,-6.77,-6.73,0,*6C
1494284419.33,5467,14.44,72814.3,-5.95,-6.73,-6.73,0,*69
1494284420.52,5468,14.44,72814.0,-5.97,-6.77,-6.77,0,*64
1494284421.71,5469,14.44,72814.3,-5.95,-6.73,-6.77,0,*63
1494284422.91,5470,14.44,72812.8,-5.95,-6.77,-6.73,0,*6B
1494284424.13,5471,14.44,72810.8,-5.95,-6.73,-6.63,0,*6F
1494284425.35,5472,14.44,72814.0,-5.97,-6.73,-6.63,0,*6E
1494284426.55,5473,14.44,72810.0,-5.97,-6.63,-6.77,0,*6B
1494284427.75,5474,14.44,72812.0,-5.95,-6.73,-6.73,0,*6B
1494284428.94,5475,14.44,72808.5,-5.95,-6.73,-6.73,0,*6A
1494284430.17,5476,14.44,72806.3,-5.97,-6.63,-6.63,0,*6B
1494284431.41,5477,14.44,72808.8,-5.97,-6.63,-6.63,0,*6A
1494284432.59,5478,14.44,72808.3,-5.97,-6.73,-6.59,0,*6D
1494284433.81,5479,14.44,72812.3,-5.95,-6.73,-6.63,0,*67
1494284435.01,5480,14.44,72814.5,-5.95,-6.73,-6.73,0,*60
1494284436.2,5481,14.44,72814.3,-5.97,-6.77,-6.73,0,*67
1494284437.39,5482,14.44,72810.5,-5.95,-6.73,-6.77,0,*66
1494284438.58,5483,14.44,72814.5,-5.97,-6.77,-6.77,0,*61
1494284439.77,5484,14.44,72812.5,-5.97,-6.77,-6.77,0,*66
1494284440.97,5485,14.44,72812.8,-5.97,-6.81,-6.81,0,*67
1494284442.17,5486,14.44,72814.0,-5.97,-6.81,-6.81,0,*64
1494284443.36,5487,14.44,72812.8,-5.97,-6.81,-6.81,0,*65
1494284444.55,5488,14.44,72812.0,-5.97,-6.81,-6.77,0,*63
1494284445.74,5489,14.44,72814.5,-5.97,-6.73,-6.77,0,*6F
1494284446.93,5490,14.44,72812.3,-5.97,-6.77,-6.77,0,*63
1494284448.11,5491,14.44,72812.0,-5.97,-6.73,-6.73,0,*62
1494284449.3,5492,14.44,72814.0,-5.97,-6.73,-6.73,0,*61
1494284450.48,5493,14.44,72814.5,-5.97,-6.73,-6.73,0,*60
1494284451.67,5494,14.44,72814.8,-5.97,-6.73,-6.77,0,*63
1494284452.86,5495,14.44,72814.3,-5.97,-6.73,-6.73,0,*66
1494284454.04,5496,14.44,72810.0,-5.97,-6.73,-6.73,0,*65
1494284455.23,5497,14.44,72812.8,-5.97,-6.73,-6.73,0,*64
1494284456.44,5498,14.44,72812.3,-5.97,-6.73,-6.63,0,*6A
1494284457.64,5499,14.44,72816.3,-5.99,-6.69,-6.69,0,*64
1494284458.85,5500,14.44,72812.8,-5.99,-6.69,-6.77,0,*6A
1494284460.06,5501,14.44,72814.3,-5.99,-6.77,-6.77,0,*64
1494284461.28,5502,14.44,72816.0,-5.99,-6.81,-6.77,0,*6E
1494284462.49,5503,14.44,72814.3,-5.99,-6.77,-6.77,0,*66
1494284463.7,5504,14.44,72814.3,-5.99,-6.77,-6.77,0,*61
1494284464.93,5505,14.44,72814.8,-5.99,-6.81,-6.81,0,*60
1494284466.14,5506,14.44,72810.3,-5.99,-6.77,-6.77,0,*63
1494284467.33,5507,14.44,72814.0,-6.01,-6.77,-6.77,0,*60
1494284468.53,5508,14.44,72812.5,-5.99,-6.69,-6.69,0,*6D
1494284469.72,5509,14.44,72810.8,-5.97,-6.73,-6.73,0,*62
1494284470.91,5510,14.44,72814.0,-5.97,-6.73,-6.59,0,*62
1494284472.12,5511,14.44,72814.8,-5.99,-6.81,-6.69,0,*63
1494284473.36,5512,14.44,72816.0,-5.99,-6.77,-6.63,0,*63
1494284474.57,5513,14.44,72814.8,-5.99,-6.77,-6.69,0,*68
1494284475.77,5514,14.44,72812.8,-5.99,-6.69,-6.69,0,*60
1494284476.97,5515,14.44,72812.8,-5.99,-6.69,-6.69,0,*61
1494284478.21,5516,14.44,72808.8,-5.99,-6.69,-6.63,0,*68
1494284479.41,5517,14.44,72812.8,-5.99,-6.69,-6.77,0,*6C
1494284480.63,5518,14.44,72812.8,-5.99,-6.77,-6.77,0,*6C
1494284481.84,5519,14.44,72810.8,-5.99,-6.81,-6.77,0,*64
1494284483.06,5520,14.44,72810.3,-5.99,-6.81,-6.81,0,*67
1494284484.28,5521,14.44,72812.0,-5.99,-6.81,-6.77,0,*6F
1494284485.45,5522,14.44,72810.3,-6.01,-6.69,-6.69,0,*67
1494284486.66,5523,14.44,72806.8,-5.99,-6.69,-6.69,0,*64
1494284487.84,5524,14.44,72806.5,-6.01,-6.69,-6.69,0,*61
1494284489.02,5525,14.44,72810.5,-6.01,-6.69,-6.69,0,*60
1494284490.23,5526,14.44,72808.3,-5.99,-6.69,-6.81,0,*67
1494284491.44,5527,14.44,72806.0,-6.01,-6.69,-6.63,0,*68
1494284492.64,5528,14.44,72808.0,-5.99,-6.69,-6.69,0,*6F
1494284493.85,5529,14.44,72806.3,-6.01,-6.69,-6.63,0,*66
1494284495.05,5530,14.44,72808.0,-5.99,-6.69,-6.69,0,*66
1494284496.26,5531,14.44,72812.3,-5.99,-6.69,-6.69,0,*67
1494284497.46,5532,14.44,72812.8,-5.99,-6.69,-6.69,0,*64
1494284498.69,5533,14.44,72814.3,-5.99,-6.69,-6.63,0,*6F
1494284499.9,5534,14.44,72814.5,-6.01,-6.69,-6.63,0,*6A
1494284501.11,5535,14.44,72814.0,-5.99,-6.69,-6.69,0,*63
1494284502.33,5536,14.44,72814.8,-5.99,-6.63,-6.69,0,*6A
1494284503.53,5537,14.44,72812.8,-5.99,-6.69,-6.69,0,*61
1494284504.74,5538,14.44,72814.0,-6.01,-6.63,-6.69,0,*66
1494284505.94,5539,14.44,72814.8,-5.99,-6.69,-6.69,0,*6F
1494284507.14,5540,14.44,72814.0,-5.99,-6.69,-6.69,0,*61
1494284508.4,5541,14.44,72816.5,-5.99,-6.63,-6.63,0,*60
1494284509.66,5542,14.44,72812.8,-5.99,-6.63,-6.63,0,*63
1494284510.89,5543,14.44,72812.5,-5.99,-6.69,-6.63,0,*68
1494284512.12,5544,14.44,72812.0,-5.99,-6.63,-6.69,0,*6F
1494284513.32,5545,14.44,72814.3,-5.99,-6.69,-6.69,0,*64
1494284514.58,5546,14.44,72812.5,-5.99,-6.63,-6.63,0,*67
1494284515.78,5547,14.44,72814.0,-5.99,-6.69,-6.69,0,*66
1494284517.01,5548,14.44,72812.8,-5.99,-6.63,-6.69,0,*63
1494284518.26,5549,14.44,72816.8,-5.99,-6.63,-6.63,0,*68
1494284519.5,5550,14.44,72812.5,-5.99,-6.69,-6.63,0,*6A
1494284520.71,5551,14.44,72814.3,-5.99,-6.69,-6.55,0,*6E
1494284521.94,5552,14.44,72810.5,-6.01,-6.63,-6.63,0,*60
1494284523.14,5553,14.44,72810.8,-5.99,-6.69,-6.69,0,*63
1494284524.35,5554,14.44,72808.5,-5.99,-6.69,-6.69,0,*64
1494284525.55,5555,14.44,72812.0,-5.99,-6.69,-6.69,0,*65
1494284526.78,5556,14.44,72812.8,-5.99,-6.69,-6.63,0,*6C
1494284527.99,5557,14.44,72812.3,-5.99,-6.69,-6.55,0,*68
1494284529.22,5558,14.44,72812.8,-5.99,-6.69,-6.63,0,*62
1494284530.43,5559,14.44,72814.5,-5.99,-6.69,-6.69,0,*69
1494284531.66,5560,14.44,72814.8,-5.99,-6.69,-6.63,0,*69
1494284532.84,5561,14.44,72808.8,-6.01,-6.69,-6.69,0,*60
1494284534.04,5562,14.44,72808.8,-5.99,-6.69,-6.69,0,*61
1494284535.27,5563,14.44,72810.5,-5.99,-6.69,-6.63,0,*6A
1494284536.45,5564,14.44,72818.0,-6.01,-6.69,-6.69,0,*65
1494284537.71,5565,14.44,72810.5,-5.99,-6.63,-6.63,0,*66
1494284538.94,5566,14.44,72814.8,-5.99,-6.63,-6.69,0,*6F
1494284540.16,5567,14.44,72814.0,-5.99,-6.63,-6.69,0,*6E
1494284541.37,5568,14.44,72814.0,-5.99,-6.69,-6.69,0,*6B
1494284542.59,5569,14.44,72814.8,-5.99,-6.63,-6.69,0,*60
1494284543.83,5570,14.44,72814.0,-5.99,-6.69,-6.63,0,*68
1494284545.08,5571,14.44,72816.5,-5.99,-6.63,-6.63,0,*63
1494284546.32,5572,14.44,72814.0,-5.99,-6.69,-6.63,0,*6A
1494284547.57,5573,14.44,72814.5,-5.99,-6.63,-6.63,0,*61
1494284548.81,5574,14.44,72816.0,-6.01,-6.63,-6.63,0,*64
1494284550.01,5575,14.44,72816.3,-6.01,-6.63,-6.69,0,*6F
1494284551.27,5576,14.44,72814.3,-5.99,-6.63,-6.63,0,*64
1494284552.48,5577,14.44,72814.3,-6.01,-6.69,-6.63,0,*6D
1494284553.71,5578,14.44,72816.0,-5.99,-6.69,-6.63,0,*60
1494284554.97,5579,14.44,72818.8,-5.99,-6.63,-6.63,0,*6B
1494284556.22,5580,14.44,72822.5,-5.99,-6.63,-6.63,0,*6D
1494284557.45,5581,14.44,72816.8,-5.99,-6.69,-6.63,0,*66
1494284558.69,5582,14.44,72822.0,-6.01,-6.63,-6.63,0,*6D
1494284559.9,5583,14.44,72816.3,-6.01,-6.69,-6.63,0,*66
1494284561.13,5584,14.44,72816.8,-5.99,-6.69,-6.63,0,*63
1494284562.34,5585,14.44,72820.0,-6.01,-6.63,-6.77,0,*6F
1494284563.57,5586,14.44,72820.0,-5.99,-6.63,-6.69,0,*61
1494284564.77,5587,14.44,72822.0,-5.99,-6.69,-6.69,0,*6A
1494284565.97,5588,14.44,72822.3,-5.99,-6.69,-6.69,0,*65
1494284567.18,5589,14.44,72820.0,-5.99,-6.77,-6.69,0,*6B
1494284568.38,5590,14.44,72818.0,-5.99,-6.69,-6.69,0,*6C
1494284569.57,5591,14.44,72824.0,-6.01,-6.69,-6.81,0,*69
1494284570.76,5592,14.44,72816.3,-6.01,-6.77,-6.77,0,*6C
1494284571.95,5593,14.44,72816.5,-6.01,-6.77,-6.77,0,*6D
1494284573.17,5594,14.44,72818.8,-5.99,-6.77,-6.77,0,*68
1494284574.36,5595,14.44,72816.8,-6.01,-6.77,-6.77,0,*6B
1494284575.55,5596,14.44,72818.5,-6.01,-6.77,-6.81,0,*61
1494284576.75,5597,14.44,72812.0,-6.01,-6.85,-6.81,0,*6D
1494284577.94,5598,14.44,72814.8,-6.01,-6.85,-6.81,0,*62
1494284579.16,5599,14.44,72814.3,-5.99,-6.85,-6.81,0,*61
1494284580.35,5600,14.44,72812.5,-6.01,-6.85,-6.81,0,*60
1494284581.54,5601,14.44,72808.0,-6.01,-6.85,-6.81,0,*61
1494284582.74,5602,14.44,72810.5,-6.01,-6.85,-6.81,0,*62
1494284583.93,5603,14.44,72812.5,-6.01,-6.81,-6.77,0,*6E
1494284585.12,5604,14.44,72814.5,-6.01,-6.81,-6.81,0,*60
1494284586.32,5605,14.44,72814.8,-6.01,-6.81,-6.81,0,*61
1494284587.52,5606,14.44,72814.0,-6.01,-6.81,-6.81,0,*62
1494284588.71,5607,14.44,72812.8,-6.01,-6.81,-6.81,0,*63
1494284589.91,5608,14.44,72808.3,-6.05,-6.81,-6.85,0,*6C
1494284591.1,5609,14.44,72814.3,-6.01,-6.81,-6.77,0,*64
1494284592.32,5610,14.44,72814.5,-5.99,-6.81,-6.81,0,*67
1494284593.51,5611,14.44,72808.8,-6.01,-6.81,-6.77,0,*6D
1494284594.7,5612,14.44,72816.0,-6.01,-6.77,-6.77,0,*67
1494284595.9,5613,14.44,72810.8,-6.01,-6.81,-6.81,0,*66
1494284597.1,5614,14.44,72812.5,-6.05,-6.81,-6.81,0,*65
1494284598.29,5615,14.44,72814.5,-6.05,-6.85,-6.81,0,*60
1494284599.48,5616,14.44,72810.8,-6.05,-6.85,-6.85,0,*67
1494284600.7,5617,14.44,72812.3,-6.07,-6.89,-6.89,0,*64
1494284601.92,5618,14.44,72810.5,-6.07,-6.89,-6.89,0,*6B
1494284603.11,5619,14.44,72808.8,-6.05,-6.85,-6.85,0,*68
1494284604.3,5620,14.44,72810.3,-6.05,-6.89,-6.89,0,*62
1494284605.49,5621,14.44,72808.5,-6.05,-6.85,-6.85,0,*63
1494284606.68,5622,14.44,72806.0,-6.05,-6.89,-6.89,0,*60
1494284607.89,5623,14.44,72806.8,-6.07,-6.89,-6.85,0,*6F
1494284609.11,5624,14.44,72810.5,-6.05,-6.85,-6.93,0,*61
1494284610.35,5625,14.44,72806.8,-6.07,-6.89,-6.93,0,*6E
1494284611.57,5626,14.44,72806.0,-6.07,-6.89,-6.89,0,*66
1494284612.75,5627,14.44,72806.8,-6.05,-6.85,-6.85,0,*65
1494284613.97,5628,14.44,72804.8,-6.07,-6.89,-6.89,0,*68
1494284615.2,5629,14.44,72806.3,-6.07,-6.89,-6.81,0,*61
1494284616.41,5630,14.44,72804.0,-6.07,-6.89,-6.85,0,*6D
1494284617.63,5631,14.44,72808.5,-6.07,-6.89,-6.85,0,*6C
1494284618.82,5632,14.44,72806.0,-6.05,-6.85,-6.81,0,*65
1494284620.04,5633,14.44,72804.0,-6.07,-6.85,-6.89,0,*6E
1494284621.26,5634,14.44,72804.3,-6.07,-6.85,-6.85,0,*65
1494284622.45,5635,14.44,72806.5,-6.09,-6.77,-6.89,0,*6B
1494284623.67,5636,14.44,72806.5,-6.07,-6.85,-6.77,0,*6A
1494284624.88,5637,14.44,72806.3,-6.07,-6.85,-6.85,0,*66
1494284626.1,5638,14.44,72806.0,-6.07,-6.77,-6.77,0,*69
1494284627.3,5639,14.44,72802.3,-6.05,-6.81,-6.73,0,*67
1494284628.51,5640,14.44,72804.5,-6.07,-6.85,-6.77,0,*6B
1494284629.73,5641,14.44,72800.5,-6.07,-6.77,-6.77,0,*67
1494284630.95,5642,14.44,72806.5,-6.07,-6.77,-6.85,0,*69
1494284632.17,5643,14.44,72802.0,-6.07,-6.77,-6.85,0,*68
1494284633.39,5644,14.44,72802.5,-6.07,-6.77,-6.77,0,*62
1494284634.61,5645,14.44,72806.3,-6.07,-6.73,-6.77,0,*67
1494284635.8,5646,14.44,72802.3,-6.05,-6.73,-6.81,0,*6F
1494284637.02,5647,14.38,72802.5,-6.07,-6.85,-6.77,0,*6C
1494284638.24,5648,14.44,72804.0,-6.07,-6.73,-6.73,0,*6E
1494284639.45,5649,14.44,72800.0,-6.07,-6.73,-6.77,0,*6B
1494284640.67,5650,14.44,72802.0,-6.07,-6.73,-6.77,0,*63
1494284641.89,5651,14.44,72802.3,-6.07,-6.77,-6.73,0,*62
1494284643.11,5652,14.44,72802.8,-6.07,-6.73,-6.77,0,*61
1494284644.3,5653,14.44,72802.5,-6.05,-6.81,-6.73,0,*6B
1494284645.52,5654,14.44,72804.8,-6.07,-6.77,-6.73,0,*67
1494284646.71,5655,14.44,72806.8,-6.05,-6.73,-6.73,0,*60
1494284647.93,5656,14.44,72806.0,-6.07,-6.77,-6.73,0,*65
1494284649.15,5657,14.44,72804.8,-6.07,-6.77,-6.73,0,*64
1494284650.36,5658,14.44,72804.5,-6.07,-6.73,-6.77,0,*6B
1494284651.58,5659,14.44,72806.3,-6.07,-6.77,-6.73,0,*6A
1494284652.8,5660,14.44,72804.5,-6.07,-6.73,-6.77,0,*60
1494284654.02,5661,14.44,72806.3,-6.07,-6.77,-6.73,0,*61
1494284655.23,5662,14.44,72800.5,-6.07,-6.73,-6.73,0,*66
1494284656.42,5663,14.44,72804.5,-6.05,-6.73,-6.73,0,*65
1494284657.64,5664,14.38,72802.8,-6.07,-6.77,-6.73,0,*64
1494284658.83,5665,14.44,72806.0,-6.05,-6.69,-6.69,0,*63
1494284660.04,5666,14.38,72806.0,-6.07,-6.73,-6.73,0,*62
1494284661.26,5667,14.44,72808.8,-6.07,-6.73,-6.73,0,*63
1494284662.47,5668,14.44,72810.0,-6.07,-6.73,-6.77,0,*68
1494284663.69,5669,14.44,72810.5,-6.07,-6.73,-6.73,0,*6D
1494284664.91,5670,14.38,72808.0,-6.07,-6.77,-6.73,0,*61
1494284666.12,5671,14.38,72808.3,-6.07,-6.73,-6.73,0,*64
1494284667.34,5672,14.38,72810.5,-6.07,-6.77,-6.73,0,*63
1494284668.56,5673,14.38,72812.0,-6.07,-6.77,-6.77,0,*66
1494284669.78,5674,14.38,72808.3,-6.07,-6.73,-6.73,0,*61
1494284671.0,5675,14.38,72810.8,-6.07,-6.77,-6.73,0,*64
1494284672.21,5676,14.44,72814.3,-6.07,-6.73,-6.73,0,*63
1494284673.43,5677,14.38,72810.0,-6.07,-6.73,-6.73,0,*62
1494284674.65,5678,14.44,72814.8,-6.07,-6.73,-6.73,0,*6D
1494284675.86,5679,14.38,72810.5,-6.07,-6.73,-6.77,0,*68
1494284677.08,5680,14.44,72810.5,-6.07,-6.77,-6.73,0,*6E
1494284678.27,5681,14.38,72808.5,-6.05,-6.73,-6.69,0,*62
1494284679.46,5682,14.44,72814.8,-6.09,-6.73,-6.73,0,*66
1494284680.65,5683,14.44,72814.3,-6.09,-6.73,-6.77,0,*63
1494284681.83,5684,14.38,72810.8,-6.05,-6.69,-6.73,0,*67
1494284683.05,5685,14.44,72814.5,-6.07,-6.77,-6.73,0,*6B
1494284684.27,5686,14.44,72814.3,-6.07,-6.73,-6.73,0,*6C
1494284685.48,5687,14.44,72814.5,-6.07,-6.73,-6.73,0,*6D
1494284686.67,5688,14.44,72814.0,-6.05,-6.69,-6.73,0,*6B
1494284687.88,5689,14.44,72812.0,-6.07,-6.73,-6.73,0,*63
1494284689.1,5690,14.44,72816.3,-6.07,-6.73,-6.73,0,*6B
1494284690.32,5691,14.38,72818.0,-6.07,-6.77,-6.73,0,*6E
1494284691.54,5692,14.44,72816.8,-6.07,-6.73,-6.73,0,*69
1494284692.72,5693,14.44,72816.8,-6.05,-6.59,-6.69,0,*69
1494284693.96,5694,14.38,72814.8,-6.07,-6.63,-6.73,0,*6E
1494284695.18,5695,14.38,72816.3,-6.07,-6.77,-6.73,0,*6A
1494284696.4,5696,14.44,72818.0,-6.07,-6.77,-6.73,0,*69
1494284697.64,5697,14.38,72816.5,-6.07,-6.73,-6.63,0,*6D
1494284698.83,5698,14.44,72820.8,-6.05,-6.69,-6.73,0,*6A
1494284700.04,5699,14.44,72820.0,-6.07,-6.73,-6.73,0,*62
1494284701.23,5700,14.44,72822.0,-6.05,-6.73,-6.69,0,*6A
1494284702.44,5701,14.44,72820.8,-6.07,-6.73,-6.73,0,*62
1494284703.63,5702,14.44,72818.0,-6.05,-6.69,-6.73,0,*68
1494284704.85,5703,14.44,72816.5,-6.07,-6.77,-6.73,0,*64
1494284706.06,5704,14.44,72820.5,-6.07,-6.73,-6.73,0,*67
1494284707.28,5705,14.44,72822.0,-6.07,-6.77,-6.73,0,*62
1494284708.52,5706,14.38,72818.3,-6.07,-6.73,-6.63,0,*64
1494284709.75,5707,14.44,72820.3,-6.07,-6.77,-6.73,0,*60
1494284710.96,5708,14.44,72820.0,-6.07,-6.73,-6.77,0,*6F
1494284712.15,5709,14.44,72820.0,-6.05,-6.73,-6.69,0,*63
1494284713.36,5710,14.44,72818.8,-6.07,-6.73,-6.73,0,*62
1494284714.55,5711,14.44,72820.8,-6.05,-6.69,-6.69,0,*61
1494284715.76,5712,14.44,72818.5,-6.07,-6.73,-6.73,0,*60
1494284716.98,5713,14.38,72816.5,-6.07,-6.73,-6.73,0,*61
1494284718.19,5714,14.44,72818.5,-6.07,-6.73,-6.73,0,*66
1494284719.41,5715,14.44,72820.5,-6.07,-6.77,-6.73,0,*63
1494284720.59,5716,14.44,72820.0,-6.05,-6.69,-6.69,0,*66
1494284721.78,5717,14.44,72822.3,-6.05,-6.69,-6.73,0,*6C
1494284723.04,5718,14.44,72822.5,-6.07,-6.63,-6.63,0,*6A
1494284724.26,5719,14.44,72822.3,-6.07,-6.73,-6.77,0,*6F
1494284725.48,5720,14.38,72818.8,-6.07,-6.77,-6.73,0,*65
1494284726.7,5721,14.38,72816.8,-6.07,-6.77,-6.73,0,*64
1494284727.93,5722,14.44,72822.8,-6.07,-6.63,-6.73,0,*62
1494284729.15,5723,14.44,72822.8,-6.07,-6.77,-6.73,0,*66
1494284730.34,5724,14.44,72822.3,-6.05,-6.69,-6.69,0,*67
1494284731.58,5725,14.44,72824.3,-6.07,-6.73,-6.63,0,*65
1494284732.82,5726,14.44,72822.8,-6.07,-6.77,-6.63,0,*62
1494284734.04,5727,14.44,72824.0,-6.07,-6.73,-6.73,0,*66
1494284735.28,5728,14.44,72824.0,-6.07,-6.73,-6.63,0,*68
1494284736.53,5729,14.44,72822.8,-6.07,-6.73,-6.63,0,*69
1494284737.74,5730,14.38,72820.8,-6.07,-6.73,-6.77,0,*64
1494284738.93,5731,14.38,72820.0,-6.05,-6.69,-6.77,0,*6C
1494284740.15,5732,14.44,72820.0,-6.07,-6.77,-6.77,0,*62
1494284741.33,5733,14.44,72820.0,-6.05,-6.73,-6.69,0,*6A
1494284742.55,5734,14.44,72818.5,-6.07,-6.77,-6.73,0,*60
1494284743.77,5735,14.38,72816.5,-6.07,-6.73,-6.73,0,*65
1494284744.99,5736,14.38,72816.5,-6.07,-6.77,-6.77,0,*66
1494284746.18,5737,14.44,72816.0,-6.05,-6.73,-6.69,0,*6E
1494284747.39,5738,14.44,72814.3,-6.07,-6.73,-6.73,0,*68
1494284748.61,5739,14.44,72810.8,-6.07,-6.73,-6.73,0,*69
1494284749.83,5740,14.38,72810.3,-6.07,-6.77,-6.77,0,*67
1494284751.04,5741,14.44,72814.0,-6.07,-6.73,-6.73,0,*66
1494284752.23,5742,14.44,72808.5,-6.05,-6.73,-6.73,0,*67
1494284753.45,5743,14.44,72810.0,-6.07,-6.85,-6.77,0,*69
1494284754.66,5744,14.44,72804.8,-6.07,-6.73,-6.85,0,*6A
1494284755.88,5745,14.44,72802.0,-6.07,-6.77,-6.85,0,*6F
1494284757.1,5746,14.44,72802.5,-6.07,-6.85,-6.77,0,*6C
1494284758.32,5747,14.44,72798.8,-6.07,-6.77,-6.73,0,*64
1494284759.54,5748,14.44,72802.5,-6.07,-6.77,-6.73,0,*6B
1494284760.76,5749,14.44,72798.5,-6.07,-6.77,-6.77,0,*6E
1494284761.98,5750,14.44,72796.5,-6.07,-6.77,-6.77,0,*66
1494284763.2,5751,14.44,72796.8,-6.07,-6.77,-6.77,0,*67
1494284764.42,5752,14.38,72796.3,-6.07,-6.77,-6.77,0,*64
1494284765.61,5753,14.38,72796.3,-6.09,-6.77,-6.77,0,*6B
1494284766.81,5754,14.38,72798.0,-6.09,-6.77,-6.77,0,*6C
1494284768.0,5755,14.44,72798.3,-6.09,-6.77,-6.77,0,*6D
1494284769.2,5756,14.44,72796.3,-6.09,-6.77,-6.77,0,*6E
1494284770.41,5757,14.38,72796.0,-6.07,-6.77,-6.77,0,*61
1494284771.63,5758,14.44,72796.8,-6.07,-6.73,-6.77,0,*6A
1494284772.85,5759,14.44,72802.3,-6.07,-6.85,-6.77,0,*62
1494284774.04,5760,14.38,72800.5,-6.09,-6.85,-6.77,0,*66
1494284775.23,5761,14.44,72806.0,-6.09,-6.77,-6.77,0,*6A
1494284776.42,5762,14.44,72806.3,-6.09,-6.73,-6.77,0,*6D
1494284777.62,5763,14.44,72810.0,-6.09,-6.77,-6.73,0,*6C
1494284778.81,5764,14.44,72804.8,-6.09,-6.77,-6.77,0,*6F
1494284780.0,5765,14.38,72804.5,-6.09,-6.89,-6.85,0,*62
1494284781.19,5766,14.44,72806.0,-6.09,-6.85,-6.89,0,*61
1494284782.38,5767,14.38,72804.5,-6.09,-6.85,-6.89,0,*60
1494284783.57,5768,14.44,72810.3,-6.09,-6.89,-6.89,0,*63
1494284784.76,5769,14.38,72806.8,-6.09,-6.89,-6.85,0,*6E
1494284785.98,5770,14.44,72804.0,-6.11,-6.89,-6.89,0,*63
1494284787.22,5771,14.38,72796.0,-6.11,-6.93,-6.89,0,*69
1494284788.41,5772,14.44,72800.0,-6.09,-6.89,-6.89,0,*68
1494284789.63,5773,14.44,72800.0,-6.11,-6.89,-6.89,0,*60
1494284790.83,5774,14.44,72798.5,-6.09,-6.77,-6.85,0,*63
1494284792.07,5775,14.44,72798.8,-6.11,-6.89,-6.93,0,*6D
1494284793.26,5776,14.44,72802.5,-6.09,-6.85,-6.85,0,*6C
1494284794.5,5777,14.44,72802.8,-6.11,-6.93,-6.89,0,*6F
1494284795.69,5778,14.44,72806.5,-6.09,-6.85,-6.85,0,*62
1494284796.88,5779,14.44,72808.8,-6.09,-6.89,-6.85,0,*6F
1494284798.13,5780,14.38,72804.8,-6.11,-6.93,-6.85,0,*6B
1494284799.37,5781,14.44,72806.0,-6.11,-6.89,-6.93,0,*66
1494284800.61,5782,14.38,72806.3,-6.11,-6.89,-6.93,0,*65
1494284801.83,5783,14.44,72810.0,-6.11,-6.89,-6.89,0,*6F
1494284803.05,5784,14.38,72806.3,-6.11,-6.89,-6.89,0,*68
1494284804.24,5785,14.44,72808.8,-6.09,-6.89,-6.85,0,*6C
1494284805.48,5786,14.44,72808.5,-6.11,-6.93,-6.89,0,*61
1494284806.7,5787,14.44,72808.0,-6.11,-6.89,-6.89,0,*6B
1494284807.89,5788,14.38,72806.5,-6.09,-6.85,-6.73,0,*64
1494284809.12,5789,14.44,72810.8,-6.11,-6.81,-6.81,0,*65
1494284810.31,5790,14.38,72810.8,-6.09,-6.85,-6.77,0,*69
1494284811.53,5791,14.44,72812.0,-6.11,-6.89,-6.89,0,*6C
1494284812.72,5792,14.44,72814.5,-6.09,-6.81,-6.77,0,*6F
1494284813.94,5793,14.38,72812.0,-6.11,-6.89,-6.77,0,*6F
1494284815.13,5794,14.38,72812.3,-6.09,-6.73,-6.77,0,*64
1494284816.35,5795,14.38,72812.0,-6.11,-6.77,-6.77,0,*68
1494284817.58,5796,14.44,72818.0,-6.11,-6.81,-6.81,0,*6B
1494284818.8,5797,14.44,72816.0,-6.11,-6.77,-6.81,0,*63
1494284820.02,5798,14.44,72818.0,-6.11,-6.81,-6.77,0,*6C
1494284821.24,5799,14.38,72814.8,-6.11,-6.77,-6.77,0,*64
1494284822.44,5800,14.38,72812.3,-6.09,-6.73,-6.73,0,*62
1494284823.66,5801,14.38,72816.5,-6.11,-6.81,-6.77,0,*63
1494284824.88,5802,14.38,72814.8,-6.11,-6.77,-6.77,0,*69
1494284826.1,5803,14.38,72816.0,-6.11,-6.77,-6.77,0,*68
1494284827.32,5804,14.38,72814.3,-6.11,-6.77,-6.81,0,*66
1494284828.55,5805,14.44,72818.0,-6.11,-6.81,-6.81,0,*6E
1494284829.77,5806,14.38,72816.5,-6.11,-6.81,-6.77,0,*64
1494284831.0,5807,14.44,72818.8,-6.11,-6.81,-6.81,0,*6C
1494284832.23,5808,14.44,72822.0,-6.11,-6.77,-6.81,0,*6A
1494284833.45,5809,14.38,72818.0,-6.11,-6.77,-6.81,0,*6B
1494284834.68,5810,14.38,72816.3,-6.11,-6.81,-6.81,0,*6A
1494284835.9,5811,14.44,72820.3,-6.11,-6.77,-6.77,0,*6B
1494284837.12,5812,14.38,72816.3,-6.11,-6.77,-6.77,0,*68
1494284838.31,5813,14.38,72818.5,-6.09,-6.73,-6.77,0,*64
1494284839.5,5814,14.44,72820.3,-6.09,-6.73,-6.73,0,*67
1494284840.72,5815,14.38,72816.8,-6.11,-6.77,-6.77,0,*6F
1494284841.91,5816,14.38,72818.8,-6.09,-6.77,-6.73,0,*61
1494284843.12,5817,14.38,72816.3,-6.09,-6.63,-6.73,0,*65
1494284844.35,5818,14.44,72822.0,-6.11,-6.77,-6.81,0,*6B
1494284845.58,5819,14.44,72822.3,-6.11,-6.81,-6.81,0,*63
1494284846.8,5820,14.44,72822.0,-6.11,-6.77,-6.77,0,*69
1494284848.02,5821,14.38,72816.8,-6.11,-6.81,-6.77,0,*61
1494284849.25,5822,14.38,72818.8,-6.11,-6.77,-6.81,0,*62
1494284850.47,5823,14.38,72818.8,-6.11,-6.81,-6.81,0,*6A
1494284851.7,5824,14.44,72822.0,-6.11,-6.81,-6.77,0,*64
1494284852.92,5825,14.44,72824.5,-6.11,-6.77,-6.81,0,*65
1494284854.15,5826,14.44,72822.8,-6.11,-6.81,-6.81,0,*6F
1494284855.34,5827,14.44,72816.8,-6.09,-6.73,-6.73,0,*67
1494284856.57,5828,14.44,72814.3,-6.11,-6.81,-6.81,0,*61
1494284857.79,5829,14.44,72818.3,-6.11,-6.77,-6.81,0,*69
1494284858.99,5830,14.38,72814.8,-6.09,-6.77,-6.77,0,*61
1494284860.21,5831,14.44,72822.8,-6.11,-6.81,-6.89,0,*61
1494284861.4,5832,14.38,72818.5,-6.09,-6.77,-6.77,0,*63
1494284862.59,5833,14.44,72818.0,-6.09,-6.73,-6.77,0,*66
1494284863.82,5834,14.38,72812.0,-6.11,-6.81,-6.81,0,*6C
1494284865.04,5835,14.38,72810.5,-6.11,-6.77,-6.81,0,*64
1494284866.26,5836,14.44,72806.0,-6.11,-6.89,-6.77,0,*6F
1494284867.51,5837,14.38,72806.5,-6.11,-6.93,-6.81,0,*6C
1494284868.73,5838,14.44,72808.5,-6.11,-6.89,-6.77,0,*61
1494284869.93,5839,14.38,72810.0,-6.13,-6.81,-6.81,0,*63
1494284871.14,5840,14.38,72808.5,-6.13,-6.81,-6.81,0,*6D
1494284872.36,5841,14.44,72818.5,-6.11,-6.89,-6.81,0,*66
1494284873.59,5842,14.44,72816.3,-6.11,-6.89,-6.81,0,*65
1494284874.8,5843,14.38,72812.8,-6.11,-6.89,-6.89,0,*6C
1494284876.03,5844,14.44,72812.3,-6.11,-6.89,-6.81,0,*63
1494284877.3,5845,14.38,72812.0,-6.11,-6.93,-6.93,0,*6A
1494284878.57,5846,14.38,72810.5,-6.11,-6.93,-6.93,0,*69
1494284879.84,5847,14.38,72808.3,-6.11,-6.93,-6.93,0,*68
1494284881.05,5848,14.44,72806.5,-6.11,-6.89,-6.89,0,*67
1494284882.28,5849,14.38,72806.5,-6.13,-6.93,-6.89,0,*6F
1494284883.49,5850,14.44,72806.5,-6.11,-6.89,-6.89,0,*6E
1494284884.71,5851,14.44,72804.8,-6.11,-6.81,-6.89,0,*67
1494284885.94,5852,14.44,72804.5,-6.11,-6.81,-6.81,0,*6C
1494284887.16,5853,14.38,72804.3,-6.11,-6.81,-6.77,0,*64
1494284888.39,5854,14.44,72808.5,-6.11,-6.77,-6.81,0,*63
1494284889.59,5855,14.38,72802.5,-6.13,-6.81,-6.77,0,*60
1494284890.79,5856,14.44,72802.5,-6.13,-6.81,-6.81,0,*6A
1494284891.99,5857,14.44,72800.5,-6.13,-6.77,-6.81,0,*62
1494284893.19,5858,14.44,72804.0,-6.13,-6.77,-6.77,0,*64
1494284894.39,5859,14.44,72804.5,-6.13,-6.77,-6.81,0,*6C
1494284895.59,5860,14.44,72802.5,-6.13,-6.77,-6.81,0,*66
1494284896.79,5861,14.44,72804.3,-6.13,-6.81,-6.77,0,*67
1494284897.99,5862,14.38,72806.0,-6.13,-6.77,-6.77,0,*6D
1494284899.18,5863,14.44,72806.8,-6.13,-6.77,-6.77,0,*6C
1494284900.38,5864,14.38,72806.5,-6.13,-6.77,-6.77,0,*6B
1494284901.57,5865,14.44,72806.5,-6.13,-6.77,-6.77,0,*6A
1494284902.79,5866,14.38,72804.5,-6.11,-6.77,-6.77,0,*6B
1494284904.0,5867,14.38,72802.8,-6.09,-6.77,-6.81,0,*6A
1494284905.24,5868,14.44,72802.8,-6.11,-6.77,-6.63,0,*60
1494284906.46,5869,14.38,72800.8,-6.13,-6.77,-6.63,0,*63
1494284907.66,5870,14.44,72810.8,-6.13,-6.77,-6.77,0,*6E
1494284908.85,5871,14.44,72804.8,-6.13,-6.69,-6.69,0,*6F
1494284910.05,5872,14.38,72806.0,-6.11,-6.69,-6.69,0,*6E